Overview Statistics Trail Chart Weather Telemetry Raw packets
 

This is the latest recevied weather packets stored in our database for station/object K7MT-WX. If no packets are shown the sender has not sent any weather packets the latest 10 day(s).

<< 28 29 30 31 32 33 34 >>
Time Temp. Humidity Pressure Rain* Wind** Luminosity Snow
1787969728 17.22° C 84% 1012.9 hPa 0.51 mm - - -
1787968828 17.22° C 84% 1012.7 hPa 3.05 mm - - -
1787967928 17.22° C 81% 1012.5 hPa 3.05 mm - - -
1787967028 17.78° C 79% 1012.4 hPa 3.05 mm - - -
1787966128 20° C 68% 1013.1 hPa 2.54 mm - - -
1787965228 22.22° C 53% 1012.3 hPa 0 mm - - -
1787964328 22.78° C 48% 1011.9 hPa 0.51 mm - - -
1787963428 23.33° C 49% 1012.1 hPa 3.3 mm - - -
1787962528 22.78° C 51% 1012 hPa 5.08 mm - - -
1787961628 20.56° C 60% 1012.4 hPa 5.08 mm - - -
1787960728 20.56° C 63% 1012.4 hPa 4.57 mm - - -
1787959828 22.22° C 48% 1012.4 hPa 1.78 mm - - -
1787958928 27.22° C 33% 1012.3 hPa 0 mm - - -
1787958028 27.78° C 34% 1011.8 hPa 0 mm - - -
1787957128 28.89° C 32% 1011.9 hPa 0 mm - - -
1787956228 28.89° C 32% 1012 hPa 0 mm - - -
1787955300 28.33° C 33% 1012.3 hPa 0 mm - - -
1787954400 28.89° C 31% 1012.5 hPa 0 mm - - -
1787953500 28.33° C 34% 1012.7 hPa 0 mm - - -
1787952600 29.44° C 31% 1012.7 hPa 0 mm - - -
1787951700 28.89° C 32% 1013 hPa 0 mm - - -
1787950800 28.89° C 32% 1013.3 hPa 0 mm - - -
1787949900 27.78° C 39% 1013.6 hPa 0 mm - - -
1787949000 27.78° C 37% 1013.9 hPa 0 mm - - -
1787948100 27.22° C 39% 1014 hPa 0 mm - - -

* Rain latest hour (hover to see other rain measurements)
** Current wind speed in m/s (hover to see current wind gust speed)